Tracking 33845 objects as of 17-Apr-2026
HD Live streaming from Space Station
objects crossing your sky now

STARLINK-5010

Track STARLINK-5010 now!
10-day predictions
STARLINK-5010 is classified as:


NORAD ID: 53930
Int'l Code: 2022-119AW
Perigee: 463.8 km
Apogee: 465.8 km
Inclination: 53.2 °
Period: 93.7 minutes
Semi major axis: 6835 km
RCS: Unknown
Launch date: September 24, 2022
Source: United States (US)
Launch site: AIR FORCE EASTERN TEST RANGE (AFETR)
Your satellite tracking list
Your tracking list is empty




NASA's NSSDC Master Catalog

Two Line Element Set (TLE):
1 53930U 22119AW  26107.33336806  .00042261  00000-0  11888-2 0  9996
2 53930  53.2157 127.0782 0001520  73.4097 160.7045 15.36099030  5824
Source of the keplerian elements: AFSPC